(229836) Wladimarinello = 2009 QR34

Discovered at Lumezzane on 2009-08-28 by M. Micheli and G. P. Pizzetti.
(229836) Wladimarinello = 2009 QR34

The Italian amateur astronomer Wladimiro Marinello is an active observer of minor planets and comets, also involved in the popularization of astronomy with schools and with the general public. He is a member of the observational staff at the Serafino Zani astronomical observatory. [Ref: Minor Planet Circ. 76676]

Orbit

Orbit type: Main Belt

Note: WebGL enabled browser required.

epoch2023-02-25.0
epoch JD2460000.5
perihelion date2020-01-05.56908
perihelion JD2458854.06908
argument of perihelion (°)341.54112
ascending node (°)354.82398
inclination (°)10.86462
eccentricity0.0464302
perihelion distance (AU)2.8675009
Tisserand w.r.t. Jupiter3.2
ΔV w.r.t. Earth (km/sec)11.1
semimajor axis (AU)3.0071221
mean anomaly (°)216.68315
mean daily motion (°/day)0.18900670
aphelion distance (AU)3.147
period (years)5.21
P-vector [x]0.91663068
P-vector [y]-0.33889993
P-vector [z]-0.21197885
Q-vector [x]0.39937330
Q-vector [y]0.75386742
Q-vector [z]0.52171341
absolute magnitude16.23
phase slope0.15
uncertainty0
referenceMPO 745323
observations used235
oppositions13
arc length (days)8623
first opposition used1999
last opposition used2023
residual rms (arc-secs)0.64
perturbers coarse indicatorM-v
perturbers precise indicator003Ek
first observation date used1999-10-14.0
last observation date used2023-05-24.0
computer nameMPCLINUX
JD of orbit computation2456937.435437
perihelion JD uncertainty (days)1.9798E-04
argument of perihelion uncertainty (°)4.4580E-05
ascending node uncertainty (°)1.5267E-05
inclination uncertainty (°)5.5400E-06
eccentricity uncertainty 1.1549E-07
perihelion distance uncertainty (AU)3.6673E-07
Minimum Orbit Intersection Distances (in AU)
for orbit epoch: 2460000.5, reference: E2023-KE2
Mercury2.45154
Venus2.13975
Earth1.85952
Mars1.48111
Jupiter2.08058
Saturn6.06047
Uranus15.2975
Neptune26.9636

Observations

235 total observations over interval: 1999 10 14.337180 – 2023 05 24.317229
These data are available for download (format description).

Date (UT) J2000 RA J2000 Dec Magn Location Ref
1999 10 14.337180 01 12 25.815 +15 47 16.92 20.18 V 645 – Apache Point-Sloan Digital Sky Survey MPS 305040
1999 10 14.340652 01 12 25.621 +15 47 16.53 20.90   645 – Apache Point-Sloan Digital Sky Survey MPS 305040
2002 03 13.51477 12 24 04.89 -04 55 10.1 20.5 R 644 – Palomar Mountain/NEAT MPS 307373
2002 03 13.53082 12 24 04.13 -04 55 07.6 20.5 R 644 – Palomar Mountain/NEAT MPS 307373
2002 04 04.27066 12 05 50.73 -04 04 34.4 20.1 R 644 – Palomar Mountain/NEAT MPS 307373
2002 04 04.29178 12 05 49.66 -04 04 31.4 20.2 R 644 – Palomar Mountain/NEAT MPS 307373
2002 04 04.31272 12 05 48.59 -04 04 28.1 19.6 R 644 – Palomar Mountain/NEAT MPS 307373
2002 04 15.15086 11 57 35.65 -03 39 12.9 20.7 R 644 – Palomar Mountain/NEAT MPS 307373
2002 04 15.18633 11 57 34.14 -03 39 08.5 20.3 R 644 – Palomar Mountain/NEAT MPS 307373
2007 02 21.37064 11 37 12.75 +05 02 41.8 20.8 V 691 – Steward Observatory, Kitt Peak-Spacewatch MPS 305040
2007 02 21.39225 11 37 11.77 +05 02 43.9 20.9 V 691 – Steward Observatory, Kitt Peak-Spacewatch MPS 305040
2007 02 21.41041 11 37 10.95 +05 02 46.2 21.1 V 691 – Steward Observatory, Kitt Peak-Spacewatch MPS 305040
2007 03 10.38380 11 23 20.58 +05 43 19.2 20.3 V G96 – Mt. Lemmon Survey MPS 305040
2007 03 10.39324 11 23 20.07 +05 43 20.5 20.1 V G96 – Mt. Lemmon Survey MPS 305040
2007 03 10.40272 11 23 19.57 +05 43 21.9 20.4 V G96 – Mt. Lemmon Survey MPS 305040
2007 03 10.41218 11 23 19.06 +05 43 23.3 20.2 V G96 – Mt. Lemmon Survey MPS 305040
2009 08 28.00958 23 11 14.54 -09 33 55.1 19.6 V 130 – Lumezzane MPS 293256
2009 08 28.04880 23 11 12.56 -09 34 00.0 19.7 V 130 – Lumezzane MPS 293256
2009 08 28.95772 23 10 26.54 -09 35 33.4 19.8 V 130 – Lumezzane MPS 293256
2009 08 28.99325 23 10 24.59 -09 35 37.3 19.3 V 130 – Lumezzane MPS 293256
2009 08 29.01196 23 10 23.67 -09 35 38.6 19.8 V 130 – Lumezzane MPS 293256
2009 08 31.356847 23 08 22.89 -09 39 35.5 19.0 R F65 – Haleakala-Faulkes Telescope North MPS 293256
2009 08 31.359270 23 08 22.75 -09 39 35.5 19.1 R F65 – Haleakala-Faulkes Telescope North MPS 293256
2009 08 31.361365 23 08 22.64 -09 39 35.9 19.9 R F65 – Haleakala-Faulkes Telescope North MPS 293256
2009 08 31.363175 23 08 22.54 -09 39 35.9 19.5 R F65 – Haleakala-Faulkes Telescope North MPS 293256
2009 08 31.372726 23 08 22.03 -09 39 37.2 19.3 R F65 – Haleakala-Faulkes Telescope North MPS 293256
2009 09 01.302577 23 07 33.63 -09 41 10.3 20.5 R F65 – Haleakala-Faulkes Telescope North MPS 293256
2009 09 01.304247 23 07 33.54 -09 41 10.4 20.5 R F65 – Haleakala-Faulkes Telescope North MPS 293256
2009 09 01.326698 23 07 32.35 -09 41 12.6 20.0 R F65 – Haleakala-Faulkes Telescope North MPS 293256
2009 09 12.317233 22 57 51.88 -09 57 28.0 19.9 R F65 – Haleakala-Faulkes Telescope North MPS 295078
2009 09 12.319236 22 57 51.78 -09 57 28.3 20.2 R F65 – Haleakala-Faulkes Telescope North MPS 295078
2009 09 12.321335 22 57 51.67 -09 57 28.3 19.9 R F65 – Haleakala-Faulkes Telescope North MPS 295078
2009 09 12.323341 22 57 51.57 -09 57 28.5 20.0 R F65 – Haleakala-Faulkes Telescope North MPS 295078
2009 09 16.294259 22 54 27.45 -10 01 46.3 19.5 R F65 – Haleakala-Faulkes Telescope North MPS 295078
2009 09 16.295926 22 54 27.36 -10 01 46.4 19.4 R F65 – Haleakala-Faulkes Telescope North MPS 295078
2009 09 28.245855 22 45 17.238 -10 06 43.57 19.8 R F65 – Haleakala-Faulkes Telescope North MPS 297018
2009 09 28.248114 22 45 17.140 -10 06 43.56 19.3 R F65 – Haleakala-Faulkes Telescope North MPS 297018
2009 10 19.13924 22 35 46.60 -09 39 40.7 20.8 V G96 – Mt. Lemmon Survey MPS 299469
2009 10 19.14661 22 35 46.50 -09 39 39.8 20.9 V G96 – Mt. Lemmon Survey MPS 299469
2009 10 19.15405 22 35 46.39 -09 39 38.9 20.7 V G96 – Mt. Lemmon Survey MPS 299469
2009 10 19.16156 22 35 46.28 -09 39 37.9 20.4 V G96 – Mt. Lemmon Survey MPS 299469
2009 11 09.13491 22 36 32.58 -08 24 48.2 21.0 V G96 – Mt. Lemmon Survey MPS 302309
2009 11 09.14189 22 36 32.68 -08 24 46.8 20.8 V G96 – Mt. Lemmon Survey MPS 302309
2009 11 09.14890 22 36 32.79 -08 24 44.7 21.0 V G96 – Mt. Lemmon Survey MPS 302309
2009 11 09.15596 22 36 32.90 -08 24 42.5 20.7 V G96 – Mt. Lemmon Survey MPS 302309
2009 12 08.267093 22 52 40.924 -05 33 20.57 20.5 R F65 – Haleakala-Faulkes Telescope North MPS 306745
2009 12 08.268788 22 52 40.998 -05 33 19.79 20.9 R F65 – Haleakala-Faulkes Telescope North MPS 306745
2012 02 16.53092 10 35 54.864 +15 27 26.24 20.7 w F51 – Pan-STARRS 1, Haleakala MPS 412793
2012 02 16.54551 10 35 54.083 +15 27 28.54 20.7 w F51 – Pan-STARRS 1, Haleakala MPS 412793
2012 02 16.56024 10 35 53.300 +15 27 30.73 20.5 w F51 – Pan-STARRS 1, Haleakala MPS 412793
2014 07 08.53405 22 21 06.460 -20 49 42.45 20.8 w F51 – Pan-STARRS 1, Haleakala MPS 523330
2014 07 08.54586 22 21 06.258 -20 49 43.46 20.6 w F51 – Pan-STARRS 1, Haleakala MPS 523330
2014 07 08.55767 22 21 06.056 -20 49 44.56 20.7 w F51 – Pan-STARRS 1, Haleakala MPS 523330
2014 07 08.56948 22 21 05.849 -20 49 45.65 20.6 w F51 – Pan-STARRS 1, Haleakala MPS 523330
2014 07 27.50852 22 11 57.524 -21 28 06.65 20.5 w F51 – Pan-STARRS 1, Haleakala MPS 525108
2014 07 27.51972 22 11 57.030 -21 28 08.20 20.7 w F51 – Pan-STARRS 1, Haleakala MPS 525108
2014 07 27.53090 22 11 56.551 -21 28 09.69 20.8 w F51 – Pan-STARRS 1, Haleakala MPS 525108
2014 07 27.54209 22 11 56.063 -21 28 11.23 20.6 w F51 – Pan-STARRS 1, Haleakala MPS 525108
2014 07 30.51903 22 09 47.764 -21 35 01.08 20.4 w F51 – Pan-STARRS 1, Haleakala MPS 525108
2014 07 30.53030 22 09 47.242 -21 35 02.59 20.4 w F51 – Pan-STARRS 1, Haleakala MPS 525108
2014 07 30.54154 22 09 46.713 -21 35 04.25 20.4 w F51 – Pan-STARRS 1, Haleakala MPS 525108
2014 07 30.55275 22 09 46.192 -21 35 05.65 20.4 w F51 – Pan-STARRS 1, Haleakala MPS 525108
2014 08 15.41115 21 56 19.796 -22 06 00.95 19.7 i F51 – Pan-STARRS 1, Haleakala MPS 527782
2014 08 15.42304 21 56 19.122 -22 06 02.01 19.6 i F51 – Pan-STARRS 1, Haleakala MPS 527782
2014 08 15.43493 21 56 18.451 -22 06 03.01 19.7 i F51 – Pan-STARRS 1, Haleakala MPS 527782
2014 08 15.44684 21 56 17.776 -22 06 04.04 19.7 i F51 – Pan-STARRS 1, Haleakala MPS 527782
2014 08 25.42751 21 47 09.950 -22 15 17.08 20.6 w F51 – Pan-STARRS 1, Haleakala MPS 529348
2014 08 25.43808 21 47 09.364 -22 15 17.25 20.5 w F51 – Pan-STARRS 1, Haleakala MPS 529348
2014 08 25.44868 21 47 08.773 -22 15 17.40 20.5 w F51 – Pan-STARRS 1, Haleakala MPS 529348
2014 09 11.31840 21 33 42.179 -22 03 25.47 20.3 i F51 – Pan-STARRS 1, Haleakala MPS 532747
2014 09 11.32902 21 33 41.749 -22 03 24.30 20.5 i F51 – Pan-STARRS 1, Haleakala MPS 532747
2014 09 11.33962 21 33 41.308 -22 03 23.13 20.7 i F51 – Pan-STARRS 1, Haleakala MPS 532747
2014 09 11.35022 21 33 40.854 -22 03 22.02 20.6 i F51 – Pan-STARRS 1, Haleakala MPS 532747
2015 12 16.22412 02 57 33.545 +31 35 39.68 20.6 w F51 – Pan-STARRS 1, Haleakala MPS 662184
2015 12 16.23465 02 57 33.185 +31 35 37.11 20.7 w F51 – Pan-STARRS 1, Haleakala MPS 662184
2015 12 16.24530 02 57 32.816 +31 35 34.75 20.8 w F51 – Pan-STARRS 1, Haleakala MPS 662184
2015 12 16.25602 02 57 32.439 +31 35 32.03 20.5 w F51 – Pan-STARRS 1, Haleakala MPS 662184
2017 01 28.38474 09 41 43.794 +24 21 21.04 20.6 w F51 – Pan-STARRS 1, Haleakala MPS 765093
2017 01 28.42141 09 41 41.804 +24 21 27.28 20.6 w F51 – Pan-STARRS 1, Haleakala MPS 765093
2017 01 31.43335 09 38 59.66 +24 29 26.9 20.8 V G96 – Mt. Lemmon Survey MPS 765093
2017 01 31.44068 09 38 59.23 +24 29 28.3 20.5 V G96 – Mt. Lemmon Survey MPS 765093
2017 01 31.44703 09 38 58.87 +24 29 28.9 21.0 V G96 – Mt. Lemmon Survey MPS 765093
2017 01 31.45340 09 38 58.57 +24 29 29.8 20.6 V G96 – Mt. Lemmon Survey MPS 765093
2017 01 31.52634 09 38 54.603 +24 29 41.88 20.7 w F51 – Pan-STARRS 1, Haleakala MPS 765093
2017 01 31.53708 09 38 54.006 +24 29 43.54 20.9 w F51 – Pan-STARRS 1, Haleakala MPS 765093
